Location: Observatoire
(46.1952°N, 5.3391°E)
Time: 12:38:43
(UTC+02:00)

CUTE 1.7 + AOD 2 - Pass Details

Date: 25 April 2024
Orbit: 569 x 586 km, 97.8° (Epoch: 29 May)

Event Time Altitude Azimuth Distance (km) Brightness Sun altitude
Rises 03:55:56 0° 34° (NE) 2,785 ? -22.8°
Reaches altitude 10° 03:59:30 10° 67° (ENE) 1,877 ? -22.4°
Maximum altitude 04:00:58 12° 89° (E) 1,766 ? -22.2°
Drops below altitude 10° 04:02:26 10° 110° (ESE) 1,870 ? -22.1°
Enters shadow 04:05:06 - 138° (SE) 2,487 ? -21.8°
